SCP
0 0 0 0 0 0 0 0 0 0 0 0 0 0 0 0 0 0 0 0 0 0 0 0 0 0 0 0 0 0 0 0 0 0 1 1 1 1 1 1 1 1 1 1
0 0 0 0 0 0 0 0 0 0 0 0 0 0 0 0 0 0 0 0 0 0 0 0 0 0 0 0 0 0 0 0 0 0 0 1 1 1 1 1 1 1 1 1
0 0 0 0 0 0 0 0 0 0 0 0 0 0 0 0 0 0 0 0 0 0 0 0 0 0 0 0 0 0 0 0 0 0 0 0 0 1 1 1 1 1 1 1
0 0 0 0 0 0 0 0 0 0 0 0 0 0 0 0 0 0 0 0 0 0 0 0 0 0 0 0 0 0 0 0 0 0 0 0 0 0 1 1 1 1 1 1
0 0 0 0 0 0 0 0 0 0 0 0 0 0 0 0 0 0 0 0 0 0 0 0 0 0 0 0 0 0 0 0 0 0 0 0 0 0 0 1 1 1 1 0
0 0 0 0 0 0 0 0 0 0 0 0 0 0 0 0 0 0 0 0 0 0 0 0 0 0 0 0 0 0 0 0 0 0 0 0 0 0 0 0 0 1 0 0
0 0 0 0 0 0 0 0 0 0 0 0 0 0 0 0 0 0 0 0 0 0 0 0 0 0 0 0 0 0 0 0 0 0 0 0 0 0 0 0 0 0 0 0
0 0 0 0 0 0 0 0 0 0 0 0 0 0 0 0 0 0 0 0 0 0 0 0 0 0 0 0 0 0 0 0 0 0 0 0 0 0 0 0 0 0 0 0
0 0 0 0 0 0 0 0 0 0 0 0 0 0 0 0 0 0 0 0 0 0 0 0 0 0 0 0 0 0 0 0 0 0 0 0 0 0 0 0 0 0 0 0
0 0 0 0 0 0 0 0 0 0 0 0 0 0 0 0 0 0 0 0 0 0 0 0 0 0 0 0 0 0 0 0 0 0 0 0 0 0 0 0 0 0 0 0
0 0 0 0 0 0 0 0 0 0 0 0 0 0 0 0 0 0 0 0 0 0 0 0 0 0 0 0 0 0 0 0 0 0 0 0 0 0 0 0 0 0 0 0
0 0 0 0 0 0 0 0 0 0 0 0 0 0 0 0 0 0 0 0 0 0 0 0 0 0 0 0 0 0 0 0 0 0 0 0 0 0 0 0 0 0 0 0
0 0 0 0 0 0 0 0 0 0 0 0 0 0 0 0 0 0 0 0 0 0 0 0 0 0 0 0 0 0 0 0 0 0 0 0 0 0 0 0 0 0 0 0
0 0 0 0 0 0 0 0 0 0 0 0 0 0 0 0 0 0 0 0 0 0 0 0 0 0 0 0 0 0 0 0 0 0 0 0 0 0 0 0 0 0 0 0
0 0 0 0 0 0 0 0 0 0 0 0 0 0 0 0 0 0 0 0 0 0 0 0 0 0 0 0 0 0 0 0 0 0 0 0 0 0 0 0 0 0 0 0
0 0 0 0 0 0 0 0 0 0 0 0 0 0 0 0 0 0 0 0 0 0 0 0 0 0 0 0 0 0 0 0 0 0 0 0 0 0 0 0 0 0 0 0
0 0 0 0 0 0 0 0 0 0 0 0 0 0 0 0 0 0 0 0 0 0 0 0 0 0 0 0 0 0 0 0 0 0 0 0 0 0 0 0 0 0 0 0
0 0 0 0 0 0 0 0 0 0 0 0 0 0 0 0 0 0 0 0 0 0 0 0 0 0 0 0 0 0 0 0 0 0 0 0 0 0 0 0 0 0 0 0
0 0 0 0 0 0 0 0 0 0 0 0 0 0 0 0 0 0 0 0 0 0 0 0 0 0 0 0 0 0 0 0 0 0 0 0 0 0 0 0 0 0 0 0
0 0 0 0 0 0 0 0 0 0 0 0 0 0 0 0 0 0 0 0 0 0 0 0 0 0 0 0 0 0 0 0 0 0 0 0 0 0 0 0 0 0 0 0
0 0 0 0 0 0 0 0 0 0 0 0 0 0 0 0 0 0 0 0 0 0 0 0 0 0 0 0 0 0 0 0 0 0 0 0 0 0 0 0 0 0 0 0
0 0 0 0 0 0 0 0 0 0 0 0 0 0 0 0 0 0 0 0 0 0 0 0 0 0 0 0 0 0 0 0 0 0 0 0 0 0 0 0 0 0 0 0
0 0 0 0 0 0 0 0 0 0 0 0 0 0 0 0 0 0 0 0 0 0 0 0 0 0 0 0 0 0 0 0 0 0 0 0 0 0 0 0 0 0 0 0
0 0 0 0 0 0 0 0 0 0 0 0 0 0 0 0 0 0 0 0 0 0 0 0 0 0 0 0 0 0 0 0 0 0 0 0 0 0 0 0 0 0 0 0
0 0 0 0 0 0 0 0 0 0 0 0 0 0 0 0 0 0 0 0 0 0 0 0 0 0 0 0 0 0 0 0 0 0 0 0 0 0 0 0 0 0 0 0
0 0 0 0 0 0 0 0 0 0 0 0 0 0 0 0 0 0 0 0 0 0 0 0 0 0 0 0 0 0 0 0 0 0 0 0 0 0 0 0 0 0 0 0
0 0 0 0 0 0 0 0 0 0 0 0 0 0 0 0 0 0 0 0 0 0 0 0 0 0 0 0 0 0 0 0 0 0 0 0 0 0 0 0 0 0 0 0
Wind_Speed
6 7 7 8 9 8 8 8 9 9 10 11 9 8 8 8 7 7 6 7 7 7 6 6 6 5 5 5 5 5 4 4 5 5 5 5 5 5 4 4 4 4 4 4
5 5 6 8 10 10 10 10 11 12 13 8 6 6 7 7 7 7 7 7 7 7 7 6 6 5 5 5 5 4 4 4 4 4 5 5 5 5 5 5 4 4 4 4
4 6 5 6 7 7 6 6 7 9 8 4 6 7 8 8 7 7 7 7 7 7 7 6 6 6 5 5 4 4 4 4 4 4 4 5 5 4 4 5 5 5 4 4
3 3 6 3 2 4 6 6 6 6 6 6 7 8 7 6 5 6 7 7 7 6 7 6 6 5 5 5 4 4 4 4 5 5 5 5 4 4 5 4 4 4 4 5
2 4 8 7 3 3 5 6 5 6 7 7 6 6 5 4 5 6 7 7 6 6 6 6 6 5 5 4 4 4 4 5 5 5 5 5 5 5 5 5 4 4 4 4
3 5 7 4 1 1 3 6 3 4 5 6 5 7 6 6 7 8 8 6 6 6 6 6 6 5 4 5 5 5 6 6 5 5 5 5 5 5 5 4 4 4 4 4
6 7 9 6 2 2 4 4 1 3 5 6 7 8 8 8 8 8 8 7 6 6 5 5 5 5 5 6 6 6 6 6 5 5 5 5 5 4 4 4 4 4 4 4
5 7 10 3 4 6 5 2 4 5 6 7 9 9 9 9 9 9 9 8 7 6 6 5 5 5 6 7 6 5 5 5 6 5 5 4 4 4 4 4 3 3 4 4
9 9 5 4 6 5 4 5 6 7 8 8 9 10 11 10 10 9 9 8 6 6 7 6 5 5 7 7 6 5 5 5 6 5 5 4 4 4 3 3 3 3 3 4
9 12 10 9 9 8 7 8 8 8 8 8 10 11 11 10 9 9 8 6 5 5 6 7 6 5 6 6 5 5 6 6 5 5 5 4 4 4 3 3 4 4 4 4
11 12 10 9 10 9 8 8 8 8 7 8 10 11 10 9 9 8 7 6 5 6 7 8 7 7 6 5 5 6 6 5 5 5 5 4 4 4 5 4 4 5 5 4
12 9 8 8 6 6 7 8 8 8 9 8 8 9 9 8 7 7 7 6 6 7 7 7 7 7 6 5 5 5 5 5 5 4 4 4 4 4 6 6 7 9 8 7
12 8 9 9 8 7 7 8 7 7 8 9 7 6 7 7 7 6 7 7 7 7 7 7 7 7 6 5 5 5 6 6 5 5 4 4 4 5 5 5 6 7 8 8
10 7 9 9 9 7 6 6 5 5 6 6 6 6 6 6 6 7 8 7 7 7 7 7 7 8 6 5 5 6 6 6 6 5 5 5 5 5 5 5 5 4 5 6
11 10 10 7 6 5 4 4 5 6 6 6 5 5 6 7 8 8 8 7 7 7 7 7 7 8 5 5 5 6 6 5 5 5 5 5 5 5 5 5 5 5 4 4
5 5 6 7 8 7 5 6 7 9 7 7 6 7 7 7 7 8 7 6 7 8 8 7 8 8 5 5 6 6 5 6 6 5 5 5 5 4 5 5 5 4 4 4
5 6 6 7 8 8 7 8 8 8 7 7 7 6 6 6 7 8 8 6 7 9 8 8 9 7 6 6 6 5 5 5 6 5 5 5 4 5 5 4 4 4 4 4
9 9 7 7 7 7 8 7 6 6 6 6 6 5 6 7 8 9 8 7 8 9 9 8 7 6 6 6 5 5 4 4 4 5 4 4 5 4 4 5 5 5 4 4
6 6 6 6 6 6 6 6 6 5 5 4 5 7 7 7 8 8 7 7 8 9 7 4 7 6 6 6 5 4 5 5 4 4 4 5 5 4 4 4 4 4 4 3
4 4 4 4 3 4 5 5 4 5 4 4 5 6 7 7 6 6 7 8 7 6 5 5 6 6 5 5 5 4 4 5 4 4 4 4 4 4 4 4 4 4 4 4
5 4 4 4 4 4 4 4 4 5 4 4 5 7 7 7 6 5 6 8 6 5 5 6 5 5 4 4 4 4 4 4 4 4 4 4 4 4 4 4 4 4 4 4
4 4 4 4 4 4 4 3 4 4 4 4 5 5 6 7 6 6 7 7 6 6 5 4 4 5 5 4 3 3 4 4 4 3 3 4 4 4 4 4 4 4 4 4
3 4 4 3 4 4 4 3 3 4 4 5 5 6 6 6 5 5 6 4 4 6 5 5 6 6 5 3 3 3 4 4 4 4 4 4 4 4 4 4 4 4 4 4
3 3 3 2 2 2 4 4 3 4 4 5 5 5 5 5 5 5 5 6 6 7 5 6 7 6 4 3 3 3 3 4 4 4 4 4 4 4 4 4 4 4 4 4
3 2 2 2 3 3 4 3 3 3 4 4 5 5 4 4 5 5 5 6 7 6 5 5 6 5 3 3 3 3 3 3 3 3 3 3 3 3 4 4 3 3 3 3
3 3 3 3 3 3 2 2 2 3 3 4 4 4 3 3 5 5 4 5 6 5 5 4 4 4 3 3 3 3 3 3 3 3 3 3 4 4 3 3 4 4 3 3
2 2 1 2 2 2 2 2 3 3 3 4 5 4 4 4 4 4 4 4 4 4 4 3 3 3 3 3 3 3 3 3 3 3 3 3 3 3 3 4 4 3 3 3
Wind_Direction
275 287 285 275 273 265 249 240 241 255 264 279 297 308 315 322 328 333 339 345 347 344 344 344 345 345 346 344 350 351 350 351 350 346 346 347 347 345 342 335 327 318 309 305
284 294 296 280 270 260 254 247 245 256 270 285 297 315 322 325 328 329 332 335 336 336 336 335 336 336 334 331 335 338 340 339 341 342 345 345 344 344 344 340 335 332 324 314
276 313 306 271 257 241 242 242 240 253 270 303 310 311 310 314 321 324 324 328 332 333 330 328 327 324 321 321 323 326 328 331 335 337 337 337 336 338 338 334 331 330 325 322
288 317 253 261 328 258 250 266 262 266 283 293 297 302 302 310 314 317 321 322 326 326 324 323 320 318 318 321 323 320 321 326 330 329 327 329 329 329 329 326 322 319 318 317
232 264 276 290 273 237 240 271 268 263 280 295 306 302 292 317 320 307 308 307 306 311 313 314 318 317 315 315 315 312 311 313 315 313 312 314 317 319 319 315 312 311 309 306
217 250 257 268 274 246 246 267 273 273 290 299 303 295 302 321 313 306 304 304 304 306 309 309 314 315 308 304 304 302 302 302 302 299 296 298 302 305 307 304 303 306 299 296
229 249 265 266 264 190 222 267 294 276 286 290 283 284 300 304 302 302 300 300 299 298 298 301 308 306 294 292 291 297 302 299 296 293 291 291 294 295 298 299 299 300 298 298
205 229 253 209 169 210 250 285 274 281 288 288 285 291 296 298 299 299 297 297 294 292 292 297 301 294 287 287 294 298 296 291 289 289 287 287 288 291 293 290 290 293 294 294
213 233 269 218 226 250 258 261 273 280 286 287 287 290 293 295 295 294 293 291 289 285 287 291 292 283 280 287 296 294 287 284 284 287 284 281 276 276 279 277 276 281 284 286
253 259 261 259 259 262 263 267 275 278 281 280 281 285 286 287 290 291 291 288 287 283 282 285 287 282 278 287 289 284 280 282 282 282 283 280 273 265 262 262 266 269 272 277
255 268 278 261 247 254 263 267 271 276 275 274 278 280 282 285 286 287 288 287 284 278 279 284 291 289 287 286 281 278 279 280 279 274 275 274 269 265 264 260 259 264 266 267
245 245 245 264 260 248 253 260 263 271 279 278 273 276 282 283 286 286 285 286 284 280 279 283 287 287 289 286 273 269 274 276 274 273 271 270 274 276 265 267 273 269 270 272
246 255 256 270 273 263 262 269 271 270 274 280 281 278 279 282 285 285 283 280 277 278 280 281 281 281 285 284 272 261 263 269 272 271 268 265 265 268 278 278 270 272 273 273
242 248 261 259 262 269 271 276 276 275 276 276 279 281 278 279 281 279 278 280 283 282 280 278 277 276 280 280 272 266 264 263 263 266 265 262 261 263 265 269 276 274 274 272
237 233 245 264 271 273 279 279 278 276 278 279 276 273 273 274 276 279 283 286 284 278 274 274 274 276 279 272 265 262 262 262 262 263 262 260 259 259 259 260 261 267 274 269
234 234 240 249 258 266 270 267 268 275 279 280 280 277 278 279 282 283 283 280 276 277 277 275 272 275 275 264 261 259 255 256 258 259 258 256 254 254 255 256 256 254 255 261
215 237 235 244 253 258 256 254 258 269 274 273 275 283 286 286 285 283 283 279 273 273 273 270 270 274 266 257 254 257 259 256 249 250 250 250 251 250 251 252 252 254 255 255
223 233 231 236 243 253 262 263 261 265 267 272 281 280 276 273 276 282 287 291 289 283 274 269 269 270 264 258 253 256 254 254 250 248 250 248 249 249 248 249 250 254 260 260
225 231 237 241 242 244 256 263 266 266 270 269 269 270 272 272 275 282 288 286 280 281 283 277 283 283 274 266 259 253 251 250 249 247 247 246 246 244 243 245 248 252 255 256
222 227 232 244 243 236 252 264 266 268 267 264 270 275 277 278 279 282 282 276 268 275 293 294 287 279 275 270 267 255 248 247 246 246 242 241 243 246 246 247 249 251 253 254
222 224 229 237 253 256 253 255 255 264 271 263 261 269 277 285 284 280 280 282 284 283 285 284 279 278 275 273 263 256 249 246 245 244 243 243 244 246 247 247 247 247 249 250
214 219 230 237 248 267 270 260 254 261 269 270 269 271 279 285 287 282 268 268 288 298 294 285 282 280 280 276 264 256 251 247 246 245 244 245 245 247 248 248 248 249 249 250
213 220 229 234 244 266 280 265 253 257 262 267 268 269 273 279 281 282 286 285 291 291 288 283 287 287 283 272 262 256 252 248 247 245 246 246 245 246 249 251 250 249 249 249
213 220 231 237 225 244 265 271 268 269 267 272 268 268 274 283 282 270 277 293 298 296 290 288 289 291 289 278 266 259 256 255 252 249 249 250 249 248 250 251 252 252 248 247
212 217 211 209 226 244 261 278 282 278 278 281 284 282 276 272 276 290 295 292 293 292 290 291 294 296 289 276 271 267 265 262 261 260 256 254 254 254 255 255 253 254 251 250
208 221 228 231 238 245 251 253 263 273 281 288 292 292 292 289 285 287 290 290 291 290 291 293 294 292 284 279 275 274 274 272 267 260 257 259 260 260 259 258 260 259 258 257
201 209 216 241 241 235 242 249 257 267 269 275 287 292 292 293 293 293 294 293 295 297 299 300 299 295 291 287 284 280 277 275 270 266 265 263 262 262 262 262 263 264 263 259